Powrót do katalogu

AURA

AktywnyNaukaSSO
NORAD 28376·PAYLOAD·🇺🇸 United States

Wystrzelony Jul 15, 2004 z Vandenberg Space Force Base

Loading…

Następne Przeloty (najbliższe 24 godziny)

TLE

ŚwieżeSource: Space-Track

Epoka: Sep 14, 2026, 14:40 UTC

1 28376U 04026A   26257.61155077  .00000564  00000-0  12371-3 0  9994
2 28376  98.3513 214.8510 0001507  69.7282 290.4080 14.61440141179270

Śledź AURA w czasie rzeczywistym z AllMySat

Download on the App Store